VOE2112 LFBO-LFRN

Flight info

Callsign VOE2112
Flight time 0h 54m
Altitude 32000
Route LACOU7A/14L LACOU DCT CHALA DCT CNA DCT MANAK UY110 TIRAV UT501 USODA UM184 EPAPU
Aircraft A319/M-SDE3FGHIRWY/LB1

Departure

Time 2026-04-23 19:42
Airport Toulouse-Blagnac Airport (LFBO)

Arrival

Time 2026-04-23 20:36
Airport Rennes-Saint-Jacques Airport (LFRN)
Time Latitude Longitude Altitude Speed Heading
2026-04-23 19:27 43.62873 1.37603 494 ft 0 kts 53°
2026-04-23 19:35 43.62870 1.37599 485 ft 3 kts 52°
2026-04-23 19:35 43.62852 1.37572 488 ft 4 kts 32°
2026-04-23 19:35 43.62828 1.37559 490 ft 4 kts
2026-04-23 19:35 43.62802 1.37565 490 ft 4 kts 337°
2026-04-23 19:36 43.62792 1.37572 493 ft 0 kts 335°
2026-04-23 19:38 43.62826 1.37518 491 ft 12 kts 279°
2026-04-23 19:38 43.62805 1.37410 494 ft 12 kts 251°
2026-04-23 19:38 43.62838 1.37319 491 ft 11 kts 322°
2026-04-23 19:38 43.62901 1.37234 491 ft 15 kts 290°
2026-04-23 19:39 43.62858 1.37110 495 ft 15 kts 233°
2026-04-23 19:39 43.62858 1.36989 493 ft 14 kts 316°
2026-04-23 19:39 43.62940 1.36904 493 ft 17 kts 323°
2026-04-23 19:39 43.63061 1.36775 492 ft 32 kts 323°
2026-04-23 19:40 43.63252 1.36577 493 ft 24 kts 323°
2026-04-23 19:40 43.63387 1.36437 495 ft 24 kts 323°
2026-04-23 19:40 43.63523 1.36296 495 ft 25 kts 323°
2026-04-23 19:40 43.63661 1.36153 490 ft 25 kts 323°
2026-04-23 19:41 43.63797 1.36012 489 ft 20 kts 323°
2026-04-23 19:41 43.63783 1.35872 496 ft 16 kts 234°
2026-04-23 19:41 43.63705 1.35803 497 ft 14 kts 158°
2026-04-23 19:41 43.63551 1.35954 495 ft 60 kts 143°
2026-04-23 19:42 43.63009 1.36523 493 ft 132 kts 143°
2026-04-23 19:42 43.62178 1.37398 864 ft 154 kts 140°
2026-04-23 19:42 43.61340 1.38332 1632 ft 159 kts 137°
2026-04-23 19:42 43.60486 1.39356 2375 ft 166 kts 134°
2026-04-23 19:43 43.59606 1.40441 3104 ft 178 kts 140°
2026-04-23 19:43 43.58511 1.41464 3581 ft 202 kts 145°
2026-04-23 19:43 43.57242 1.42547 4076 ft 227 kts 147°
2026-04-23 19:43 43.55697 1.43403 4574 ft 254 kts 168°
2026-04-23 19:44 43.53889 1.43223 5363 ft 270 kts 197°
2026-04-23 19:44 43.52309 1.41771 6319 ft 280 kts 229°
2026-04-23 19:44 43.51490 1.39331 7253 ft 287 kts 262°
2026-04-23 19:44 43.51746 1.36671 8249 ft 287 kts 295°
2026-04-23 19:45 43.52995 1.34567 9326 ft 287 kts 326°
2026-04-23 19:45 43.54800 1.33405 10356 ft 288 kts 337°
2026-04-23 19:45 43.56742 1.32335 10742 ft 312 kts 337°
2026-04-23 19:45 43.58835 1.31161 11042 ft 336 kts 336°
2026-04-23 19:46 43.61064 1.29898 11418 ft 353 kts 336°
2026-04-23 19:46 43.63360 1.28594 12151 ft 359 kts 336°
2026-04-23 19:46 43.65683 1.27271 12912 ft 363 kts 336°
2026-04-23 19:46 43.68028 1.25931 13668 ft 367 kts 336°
2026-04-23 19:47 43.69599 1.25035 14145 ft 370 kts 336°
2026-04-23 19:47 43.72806 1.23209 15057 ft 375 kts 336°
2026-04-23 19:47 43.75197 1.21850 15731 ft 378 kts 336°
2026-04-23 19:47 43.77638 1.20462 16412 ft 381 kts 336°
2026-04-23 19:48 43.80107 1.19052 17086 ft 384 kts 336°
2026-04-23 19:48 43.82589 1.17627 17759 ft 388 kts 336°
2026-04-23 19:48 43.85109 1.16179 18427 ft 392 kts 336°
2026-04-23 19:48 43.87635 1.14726 18992 ft 395 kts 336°
2026-04-23 19:49 43.90182 1.13265 19567 ft 397 kts 336°
2026-04-23 19:49 43.92749 1.11793 20152 ft 400 kts 336°
2026-04-23 19:49 43.95328 1.10311 20710 ft 402 kts 336°
2026-04-23 19:49 43.97884 1.08839 21246 ft 404 kts 336°
2026-04-23 19:50 44.00504 1.07329 21790 ft 406 kts 336°
2026-04-23 19:50 44.03124 1.05817 22320 ft 409 kts 336°
2026-04-23 19:50 44.05752 1.04302 22865 ft 410 kts 336°
2026-04-23 19:50 44.08400 1.02777 23399 ft 412 kts 336°
2026-04-23 19:51 44.11053 1.01245 23850 ft 414 kts 336°
2026-04-23 19:51 44.13720 0.99704 24264 ft 416 kts 336°
2026-04-23 19:51 44.16401 0.98151 24677 ft 418 kts 336°
2026-04-23 19:51 44.19068 0.96605 25074 ft 420 kts 335°
2026-04-23 19:52 44.21777 0.95033 25463 ft 422 kts 335°
2026-04-23 19:52 44.24492 0.93461 25844 ft 424 kts 335°
2026-04-23 19:52 44.27236 0.91871 26226 ft 426 kts 335°
2026-04-23 19:52 44.29980 0.90261 26600 ft 428 kts 334°
2026-04-23 19:53 44.32691 0.88509 26961 ft 430 kts 332°
2026-04-23 19:53 44.35362 0.86623 27300 ft 431 kts 331°
2026-04-23 19:53 44.38018 0.84655 27660 ft 433 kts 330°
2026-04-23 19:53 44.40647 0.82679 27990 ft 435 kts 330°
2026-04-23 19:54 44.43326 0.80676 28334 ft 437 kts 330°
2026-04-23 19:54 44.46029 0.78681 28653 ft 439 kts 330°
2026-04-23 19:54 44.48754 0.76696 28988 ft 441 kts 331°
2026-04-23 19:54 44.51486 0.74728 29412 ft 440 kts 331°
2026-04-23 19:55 44.54217 0.72772 29857 ft 440 kts 331°
2026-04-23 19:55 44.56933 0.70824 30304 ft 439 kts 331°
2026-04-23 19:55 44.59653 0.68866 30705 ft 438 kts 330°
2026-04-23 19:55 44.62357 0.66914 31098 ft 437 kts 330°
2026-04-23 19:56 44.65024 0.64984 31483 ft 436 kts 330°
2026-04-23 19:56 44.67752 0.63005 31885 ft 435 kts 330°
2026-04-23 19:56 44.70411 0.61071 32073 ft 436 kts 330°
2026-04-23 19:57 44.75781 0.57152 32111 ft 434 kts 330°
2026-04-23 19:57 44.81130 0.53241 32112 ft 433 kts 330°
2026-04-23 19:58 44.86498 0.49323 32112 ft 434 kts 330°
2026-04-23 19:58 44.91862 0.45405 32110 ft 434 kts 330°
2026-04-23 19:59 44.97182 0.41495 32106 ft 434 kts 330°
2026-04-23 19:59 45.02541 0.37540 32092 ft 433 kts 330°
2026-04-23 20:00 45.07893 0.33590 32085 ft 434 kts 330°
2026-04-23 20:00 45.13250 0.29644 32079 ft 434 kts 330°
2026-04-23 20:01 45.18598 0.25698 32081 ft 434 kts 330°
2026-04-23 20:01 45.23950 0.21722 32087 ft 434 kts 330°
2026-04-23 20:02 45.29294 0.17735 32084 ft 434 kts 330°
2026-04-23 20:02 45.34595 0.13620 32080 ft 433 kts 324°
2026-04-23 20:03 45.39056 0.08014 32087 ft 431 kts 313°
2026-04-23 20:03 45.43266 0.01931 32083 ft 431 kts 315°
2026-04-23 20:04 45.47836 -0.03653 32067 ft 432 kts 319°
2026-04-23 20:04 45.52482 -0.09083 32066 ft 433 kts 319°
2026-04-23 20:05 45.56368 -0.13618 32064 ft 433 kts 319°
2026-04-23 20:05 45.61771 -0.20001 32100 ft 434 kts 319°
2026-04-23 20:06 45.66419 -0.25514 32101 ft 434 kts 319°
2026-04-23 20:06 45.71071 -0.31045 32091 ft 434 kts 319°
2026-04-23 20:07 45.75722 -0.36577 32087 ft 434 kts 319°
2026-04-23 20:07 45.80336 -0.42080 32096 ft 434 kts 319°
2026-04-23 20:08 45.84974 -0.47635 32087 ft 434 kts 319°
2026-04-23 20:08 45.89609 -0.53200 32090 ft 434 kts 319°
2026-04-23 20:09 45.93465 -0.57841 32096 ft 434 kts 319°
2026-04-23 20:09 45.98097 -0.63419 32100 ft 434 kts 319°
2026-04-23 20:10 46.02727 -0.69007 32096 ft 434 kts 319°
2026-04-23 20:10 46.07358 -0.74602 32095 ft 434 kts 319°
2026-04-23 20:11 46.11978 -0.80204 32087 ft 434 kts 319°
2026-04-23 20:11 46.16607 -0.85829 32090 ft 435 kts 319°
2026-04-23 20:12 46.21204 -0.91432 32088 ft 435 kts 319°
2026-04-23 20:12 46.25830 -0.97078 32096 ft 436 kts 319°
2026-04-23 20:13 46.30472 -1.02753 32099 ft 436 kts 319°
2026-04-23 20:13 46.35106 -1.08436 32105 ft 437 kts 319°
2026-04-23 20:14 46.39736 -1.14136 32111 ft 436 kts 319°
2026-04-23 20:14 46.44334 -1.19807 32127 ft 436 kts 319°
2026-04-23 20:14 46.46850 -1.22277 32113 ft 439 kts 332°
2026-04-23 20:15 46.49754 -1.23693 32114 ft 444 kts 348°
2026-04-23 20:15 46.55928 -1.24657 32114 ft 446 kts 352°
2026-04-23 20:16 46.62116 -1.25510 32125 ft 447 kts 352°
2026-04-23 20:16 46.68311 -1.26366 32126 ft 447 kts 352°
2026-04-23 20:17 46.74498 -1.27242 32128 ft 447 kts 352°
2026-04-23 20:17 46.80651 -1.28119 32130 ft 447 kts 352°
2026-04-23 20:18 46.86843 -1.29005 32131 ft 447 kts 352°
2026-04-23 20:18 46.93050 -1.29890 32135 ft 447 kts 352°
2026-04-23 20:19 46.99237 -1.30771 32146 ft 447 kts 352°
2026-04-23 20:19 47.05439 -1.31662 32150 ft 447 kts 352°
2026-04-23 20:20 47.11633 -1.32552 31109 ft 447 kts 352°
2026-04-23 20:20 47.14743 -1.32999 29300 ft 453 kts 352°
2026-04-23 20:20 47.17890 -1.33455 28027 ft 448 kts 352°
2026-04-23 20:20 47.20991 -1.33902 26853 ft 449 kts 352°
2026-04-23 20:21 47.24084 -1.34348 25675 ft 452 kts 353°
2026-04-23 20:21 47.27222 -1.34801 24528 ft 454 kts 353°
2026-04-23 20:21 47.30378 -1.35258 23358 ft 455 kts 353°
2026-04-23 20:21 47.33537 -1.35716 22063 ft 456 kts 353°
2026-04-23 20:22 47.36694 -1.36174 20955 ft 454 kts 353°
2026-04-23 20:22 47.39818 -1.36628 20065 ft 448 kts 354°
2026-04-23 20:22 47.42902 -1.37076 19166 ft 443 kts 354°
2026-04-23 20:22 47.45960 -1.37523 18262 ft 439 kts 354°
2026-04-23 20:23 47.48982 -1.37966 17422 ft 432 kts 354°
2026-04-23 20:23 47.51959 -1.38398 16539 ft 428 kts 354°
2026-04-23 20:23 47.54866 -1.38819 15768 ft 422 kts 355°
2026-04-23 20:23 47.57774 -1.39243 15006 ft 418 kts 355°
2026-04-23 20:24 47.60663 -1.39667 14265 ft 415 kts 356°
2026-04-23 20:24 47.63535 -1.40090 13495 ft 413 kts 356°
2026-04-23 20:24 47.66381 -1.40515 12782 ft 409 kts 355°
2026-04-23 20:24 47.69154 -1.41423 12070 ft 407 kts 343°
2026-04-23 20:25 47.71715 -1.43160 11472 ft 402 kts 330°
2026-04-23 20:25 47.73912 -1.45567 11324 ft 384 kts 319°
2026-04-23 20:25 47.75783 -1.48272 11203 ft 365 kts 316°
2026-04-23 20:25 47.77551 -1.50865 11079 ft 349 kts 316°
2026-04-23 20:26 47.79218 -1.53318 10953 ft 334 kts 316°
2026-04-23 20:26 47.80837 -1.55709 10835 ft 322 kts 316°
2026-04-23 20:26 47.82400 -1.58024 10645 ft 313 kts 316°
2026-04-23 20:26 47.83931 -1.60292 10522 ft 309 kts 316°
2026-04-23 20:27 47.85453 -1.62548 10438 ft 309 kts 316°
2026-04-23 20:27 47.86975 -1.64804 10301 ft 308 kts 316°
2026-04-23 20:27 47.88492 -1.67057 10164 ft 308 kts 316°
2026-04-23 20:27 47.90023 -1.69334 9666 ft 312 kts 315°
2026-04-23 20:28 47.91543 -1.71603 9305 ft 308 kts 315°
2026-04-23 20:28 47.93059 -1.73862 8885 ft 306 kts 316°
2026-04-23 20:28 47.94565 -1.76111 8365 ft 308 kts 316°
2026-04-23 20:28 47.96079 -1.78375 7900 ft 308 kts 316°
2026-04-23 20:29 47.97593 -1.80641 7457 ft 307 kts 316°
2026-04-23 20:29 47.99097 -1.82893 7025 ft 306 kts 316°
2026-04-23 20:29 48.00572 -1.85106 6595 ft 304 kts 316°
2026-04-23 20:29 48.02061 -1.87339 6145 ft 302 kts 316°
2026-04-23 20:30 48.03539 -1.89558 5700 ft 299 kts 316°
2026-04-23 20:30 48.06494 -1.94000 4664 ft 301 kts 316°
2026-04-23 20:30 48.07950 -1.96192 4231 ft 292 kts 316°
2026-04-23 20:31 48.09395 -1.98232 3810 ft 278 kts 328°
2026-04-23 20:31 48.11117 -1.99101 3441 ft 251 kts
2026-04-23 20:31 48.12616 -1.98322 3181 ft 214 kts 50°
2026-04-23 20:31 48.13217 -1.96547 3006 ft 184 kts 93°
2026-04-23 20:32 48.12735 -1.94926 2862 ft 176 kts 135°
2026-04-23 20:32 48.11755 -1.93900 2695 ft 168 kts 143°
2026-04-23 20:32 48.10851 -1.92864 2585 ft 160 kts 126°
2026-04-23 20:32 48.10243 -1.91611 2632 ft 141 kts 122°
2026-04-23 20:33 48.09740 -1.90363 2316 ft 140 kts 113°
2026-04-23 20:33 48.09362 -1.89003 1974 ft 139 kts 109°
2026-04-23 20:33 48.09075 -1.87671 1818 ft 132 kts 105°
2026-04-23 20:33 48.08840 -1.86356 1748 ft 130 kts 104°
2026-04-23 20:34 48.08638 -1.85044 1531 ft 128 kts 101°
2026-04-23 20:34 48.08476 -1.83732 1335 ft 128 kts 97°
2026-04-23 20:34 48.08346 -1.82434 1194 ft 128 kts 98°
2026-04-23 20:34 48.08216 -1.81109 1013 ft 129 kts 99°
2026-04-23 20:35 48.08028 -1.79801 834 ft 130 kts 101°
2026-04-23 20:35 48.07845 -1.78489 637 ft 128 kts 96°
2026-04-23 20:35 48.07695 -1.77177 478 ft 128 kts 99°
2026-04-23 20:35 48.07525 -1.75877 325 ft 127 kts 101°
2026-04-23 20:36 48.07365 -1.74591 166 ft 125 kts 97°
2026-04-23 20:36 48.07220 -1.73405 127 ft 92 kts 101°
2026-04-23 20:36 48.07140 -1.72789 140 ft 43 kts 101°
2026-04-23 20:36 48.07090 -1.72418 147 ft 28 kts 115°
2026-04-23 20:37 48.06984 -1.72439 142 ft 8 kts 212°
2026-04-23 20:37 48.06922 -1.72447 139 ft 11 kts 192°
2026-04-23 20:37 48.06891 -1.72475 138 ft 2 kts 225°
2026-04-23 20:37 48.06878 -1.72495 137 ft 0 kts 225°